Satellite: RS-30
Catalog number: 32953
Epoch time:      11355.68625006
Element set:     362
Inclination:      082.5024 deg
RA of node:       046.1439 deg
Eccentricity:    0.0018239
Arg of perigee:   341.4856 deg
Mean anomaly:     018.5564 deg
Mean motion:   12.43018812 rev/day
Decay rate:        1.0e-07 rev/day^2
Epoch rev:           16238
Checksum:              277

Satellite: TACSAT-3
Catalog number: 35001
Epoch time:      11354.80275968
Element set:    0805
Inclination:      040.4510 deg
RA of node:       110.8519 deg
Eccentricity:    0.0005343
Arg of perigee:   123.7179 deg
Mean anomaly:     236.4155 deg
Mean motion:   15.64695073 rev/day
Decay rate:     7.1683e-04 rev/day^2
Epoch rev:           14612
Checksum:              287

Satellite: PHARMSAT
Catalog number: 35002
Epoch time:      11354.70385857
Element set:    0743
Inclination:      040.4671 deg
RA of node:       112.2231 deg
Eccentricity:    0.0010284
Arg of perigee:   174.6551 deg
Mean anomaly:     185.4392 deg
Mean motion:   15.60025206 rev/day
Decay rate:     4.4842e-04 rev/day^2
Epoch rev:           14610
Checksum:              259

Satellite: HAWKSAT1
Catalog number: 35003
Epoch time:      11276.79285837
Element set:     811
Inclination:      040.4398 deg
RA of node:       174.3672 deg
Eccentricity:    0.0011414
Arg of perigee:   274.3918 deg
Mean anomaly:     085.3844 deg
Mean motion:   16.13812532 rev/day
Decay rate:   2.274821e-02 rev/day^2
Epoch rev:           13457
Checksum:              306

Satellite: CP6
Catalog number: 35004
Epoch time:      11247.64656856
Element set:     784
Inclination:      040.4403 deg
RA of node:       342.9642 deg
Eccentricity:    0.0002956
Arg of perigee:   038.0069 deg
Mean anomaly:     322.2231 deg
Mean motion:   16.41039951 rev/day
Decay rate:  1.6152067e-01 rev/day^2
Epoch rev:           13013
Checksum:              285

Satellite: METEOR-M
Catalog number: 35865
Epoch time:      11355.76054749
Element set:     999
Inclination:      098.6817 deg
RA of node:       048.2087 deg
Eccentricity:    0.0001850
Arg of perigee:   195.5927 deg
Mean anomaly:     164.5200 deg
Mean motion:   14.21851593 rev/day
Decay rate:       -5.0e-08 rev/day^2
Epoch rev:           11724
Checksum:              321

Satellite: RS-38
Catalog number: 35869
Epoch time:      11355.80701128
Element set:     988
Inclination:      098.6785 deg
RA of node:       048.2753 deg
Eccentricity:    0.0004161
Arg of perigee:   200.2005 deg
Mean anomaly:     159.8999 deg
Mean motion:   14.22045376 rev/day
Decay rate:        6.8e-07 rev/day^2
Epoch rev:           11726
Checksum:              328

Satellite: ARISSAT1
Catalog number: 37772
Epoch time:      11355.85930899
Element set:     428
Inclination:      051.6314 deg
RA of node:       284.7136 deg
Eccentricity:    0.0009670
Arg of perigee:   157.7128 deg
Mean anomaly:     302.7514 deg
Mean motion:   16.00032166 rev/day
Decay rate:    5.67239e-03 rev/day^2
Epoch rev:            2194
Checksum:              312

Satellite: SRMSAT
Catalog number: 37839
Epoch time:      11354.39435533
Element set:    0052
Inclination:      019.9618 deg
RA of node:       007.4203 deg
Eccentricity:    0.0019502
Arg of perigee:   044.5352 deg
Mean anomaly:     315.6550 deg
Mean motion:   14.12009553 rev/day
Decay rate:       6.19e-06 rev/day^2
Epoch rev:           00980
Checksum:              273

Satellite: JUGNU
Catalog number: 37841
Epoch time:      11354.41704542
Element set:    0051
Inclination:      019.9719 deg
RA of node:       008.6329 deg
Eccentricity:    0.0011802
Arg of perigee:   014.6250 deg
Mean anomaly:     345.4559 deg
Mean motion:   14.10100854 rev/day
Decay rate:       2.64e-06 rev/day^2
Epoch rev:           00979
Checksum:              269

Satellite: RAX-2
Catalog number: 37853
Epoch time:      11354.86581050
Element set:    0058
Inclination:      101.7063 deg
RA of node:       308.7379 deg
Eccentricity:    0.0253178
Arg of perigee:   141.5290 deg
Mean anomaly:     220.4273 deg
Mean motion:   14.78239286 rev/day
Decay rate:      2.759e-05 rev/day^2
Epoch rev:           00789
Checksum:              317

Satellite: AUBIESAT
Catalog number: 37854
Epoch time:      11354.85859577
Element set:    0059
Inclination:      101.7118 deg
RA of node:       308.7729 deg
Eccentricity:    0.0254947
Arg of perigee:   141.0698 deg
Mean anomaly:     220.9175 deg
Mean motion:   14.78468453 rev/day
Decay rate:      2.961e-05 rev/day^2
Epoch rev:           00787
Checksum:              348

Satellite: HRBE
Catalog number: 37855
Epoch time:      11354.85978120
Element set:    0062
Inclination:      101.7087 deg
RA of node:       308.7727 deg
Eccentricity:    0.0255026
Arg of perigee:   141.0441 deg
Mean anomaly:     220.9439 deg
Mean motion:   14.78415878 rev/day
Decay rate:      2.921e-05 rev/day^2
Epoch rev:           00787
Checksum:              309

/EX


_______________________________________________
Via the Keps mailing list courtesy of AMSAT-NA
http://amsat.org/mailman/listinfo/keps

--- ViaMAIL!/WC v1.60d
 * Origin: Chowdanet (401-724-4410) telnet://chowdanet.com  (1:323/120)